星链-32716 (STARLINK-32716)

导读 | 豆包AI

STARLINK-32716是美国SpaceX星链互联网星座的组成卫星,星链项目旨在为全球提供高速低延迟宽带互联网服务。该卫星于2025年2月18日由美国发射升空,星链系统依靠近地轨道卫星组网,STARLINK-32716的入轨进一步扩充了星链星座的覆盖能力与服务容量,助力全球偏远地区与移动场景的网络接入。

基本信息
目录编号:
63031
目录名称:
STARLINK-32716
国际标识:
2025-034C
轨道中心:
EARTH
卫星名称:
星链-32716
卫星全名:
星链-32716 (STARLINK-32716)
卫星状态:
在轨 (已飞行389 天)
发射日期:
2025-02-18 UTC
国别 :
美国 (US)
星等 :
--
轨道信息
数据来源 国际轨道数据
星历时间: 2026-03-14T22:46:35+0800
9小时前
查看轨道信息
半长轴: 6853.298km
偏心率: 0.0001126
轨道倾角: 53.157°
近地点辐角 62.489°
升交点赤经 235.056°
平近点角 297.622°
近地点: 474.389km
远地点: 475.933km
周期: 94.104分钟
每日圈数: 15.302182
详细信息
固有亮度:
5
最大亮度:
2.5
卫星平台:
Starlink V1.0
覆盖范围:
全球
运营商:
太空探索技术公司
运营商所在国:
美国
制造商(研发单位):
太空探索技术公司
制造商所在国:
美国
使用方式:
暂无
卫星简介
Starlink 计划是 SpaceX 推出的全球卫星互联网项目,通过发射低轨道卫星,为全球尤其是偏远地区提供高速、低延迟的互联网服务。自 2019 年起,Starlink 已部署数千颗卫星,旨在缩小全球数字鸿沟,推动互联网普及。该项目还为军事、航空等行业提供通信支持,带来广泛经济效益。
2D轨道图
3D轨道图
轨道高度分析图
轨道倾角分析图
轨道综合分析图
查看轨道综合分析图